Sauk Centre, MN

11:21 AM CDT on October 17, 2019 (GMT -0500)
Sauk Centre

Weather History for KD39 - August, 2019

Change the Weather History Date:

Monday, August 26, 2019

  Actual Average (KGHW) Record (KGHW)
Temperature  
Mean Temperature 64 °F -  
Max Temperature 72 °F 79 °F 93 °F (1949)
Min Temperature 57 °F 55 °F 43 °F (1958)
Growing Degree Days 14 (Base 50)    
Moisture  
Dew Point 60 °F    
Average Humidity 90    
Maximum Humidity 99    
Minimum Humidity 62    
Precipitation  
Precipitation 0.84 in - - ()
Sea Level Pressure  
Sea Level Pressure 29.76 in    
Wind  
Wind Speed 8 mph ()    
Max Wind Speed 16 mph    
Max Gust Speed 24 mph    
Visibility 8.6 miles    
Events Rain , Thunderstorm    
Averages and records for this station are not official NWS values.
T = Trace of Precipitation, MM = Missing Value Source: Averaged Metar Reports

Daily Weather History Graph

Daily Weather History Graph

Search for Another Location

Airport or City:

Astronomy

Aug. 26, 2019 Rise Set
Actual Time 6:33 AM CDT 8:09 PM CDT
Civil Twilight 6:01 AM CDT 8:40 PM CDT
Nautical Twilight 5:23 AM CDT 9:18 PM CDT
Astronomical Twilight 4:42 AM CDT 9:58 PM CDT
Moon 1:48 AM CDT (8/26) 5:44 PM CDT (8/26)
Length of Visible Light 14h 38m
Length of Day
13h 35m
Waning Crescent, 19% of the Moon is Illuminated
Aug 26
Waning Crescent
Aug 30
New
Sep 5
First Quarter
Sep 13
Full
Sep 21
Last Quarter

Hourly Weather History & Observations

Time (CDT) Temp. Dew Point Humidity Pressure Visibility Wind Dir Wind Speed Gust Speed Precip Events Conditions
12:15 AM 62.6 °F 60.3 °F 92% 29.85 in 10.0 mi SE 10.4 mph - N/A   Overcast
12:16 AM 62.6 °F 60.3 °F 92% 29.85 in 10.0 mi SE 9.2 mph - N/A   Overcast
12:38 AM 62.8 °F 60.3 °F 91% 29.85 in 10.0 mi SE 9.2 mph - N/A   Overcast
12:57 AM 63.0 °F 60.3 °F 91% 29.85 in 10.0 mi SE 8.1 mph - N/A   Overcast
1:15 AM 62.8 °F 60.3 °F 91% 29.85 in 10.0 mi SSE 8.1 mph - N/A   Overcast
1:35 AM 62.8 °F 60.3 °F 91% 29.84 in 10.0 mi SSE 6.9 mph - N/A   Overcast
1:36 AM 62.8 °F 60.3 °F 91% 29.84 in 10.0 mi SSE 6.9 mph - N/A   Overcast
1:55 AM 62.6 °F 59.9 °F 91% 29.83 in 10.0 mi SSE 8.1 mph - N/A   Overcast
2:16 AM 62.8 °F 59.9 °F 90% 29.82 in 10.0 mi SE 6.9 mph - N/A   Overcast
2:35 AM 62.6 °F 59.9 °F 91% 29.82 in 10.0 mi SE 6.9 mph - N/A   Overcast
2:55 AM 62.6 °F 59.9 °F 91% 29.82 in 10.0 mi SSE 8.1 mph - N/A   Overcast
2:56 AM 62.6 °F 59.9 °F 91% 29.81 in 10.0 mi SSE 8.1 mph - N/A   Overcast
3:15 AM 62.1 °F 60.3 °F 94% 29.82 in 10.0 mi SE 6.9 mph - N/A   Overcast
3:56 AM 61.9 °F 60.3 °F 94% 29.82 in 5.0 mi SE 5.8 mph - N/A   Overcast
4:16 AM 61.7 °F 60.4 °F 96% 29.81 in 10.0 mi SSE 5.8 mph - N/A   Overcast
4:36 AM 61.9 °F 60.3 °F 94% 29.81 in 10.0 mi SSE 6.9 mph - N/A   Overcast
4:55 AM 61.9 °F 60.3 °F 94% 29.79 in 10.0 mi SE 6.9 mph - N/A   Overcast
4:56 AM 61.9 °F 60.3 °F 94% 29.79 in 10.0 mi SE 6.9 mph - N/A   Overcast
5:15 AM 61.7 °F 60.4 °F 96% 29.79 in 7.0 mi SE 8.1 mph - N/A   Light Drizzle
5:16 AM 61.7 °F 60.4 °F 96% 29.78 in 7.0 mi SE 9.2 mph - N/A   Light Drizzle
5:35 AM 61.3 °F 60.4 °F 97% 29.79 in 4.0 mi SSE 8.1 mph - N/A   Light Drizzle
5:57 AM 61.2 °F 60.4 °F 97% 29.79 in 4.0 mi SSE 9.2 mph - N/A   Overcast
6:15 AM 61.0 °F 60.4 °F 98% 29.79 in 7.0 mi SSE 8.1 mph - N/A   Overcast
6:36 AM 61.0 °F 60.3 °F 97% 29.79 in 10.0 mi SSE 8.1 mph - N/A   Overcast
6:55 AM 61.2 °F 60.3 °F 97% 29.78 in 10.0 mi SSE 8.1 mph - N/A Thunderstorm Overcast
6:56 AM 61.2 °F 60.1 °F 96% 29.78 in 10.0 mi SSE 8.1 mph - N/A Thunderstorm Overcast
7:15 AM 61.2 °F 60.1 °F 96% 29.78 in 10.0 mi SSE 6.9 mph - N/A   Overcast
7:16 AM 61.2 °F 60.1 °F 96% 29.78 in 10.0 mi SSE 6.9 mph - N/A Rain Light Rain
7:35 AM 61.2 °F 60.3 °F 97% 29.77 in 3.0 mi South 6.9 mph - 0.08 in Rain Heavy Rain
7:58 AM 61.2 °F 60.8 °F 99% 29.76 in 2.5 mi SE 5.8 mph - 0.35 in Rain Rain
8:17 AM 61.2 °F 60.8 °F 99% 29.76 in 4.0 mi SE 4.6 mph - 0.05 in Rain Rain
8:35 AM 61.2 °F 60.8 °F 99% 29.75 in 4.0 mi SE 4.6 mph - 0.09 in Rain Rain
8:36 AM 61.0 °F 60.8 °F 99% 29.75 in 4.0 mi SE 4.6 mph - 0.09 in Rain Rain
8:55 AM 61.0 °F 60.8 °F 99% 29.75 in 5.0 mi South 5.8 mph - 0.12 in Rain Rain
8:56 AM 61.2 °F 60.8 °F 99% 29.75 in 5.0 mi South 5.8 mph - 0.12 in Rain Rain
9:15 AM 61.7 °F 61.3 °F 99% 29.75 in 4.0 mi South 5.8 mph - 0.05 in Rain Rain
9:19 AM 61.7 °F 61.3 °F 99% 29.75 in 5.0 mi South 5.8 mph - 0.05 in Rain Rain
9:55 AM 62.2 °F 61.9 °F 99% 29.75 in 7.0 mi South 6.9 mph - 0.08 in Rain Light Rain
10:15 AM 62.6 °F 62.1 °F 98% 29.75 in 7.0 mi South 6.9 mph - 0.01 in Rain Rain
10:16 AM 62.6 °F 62.1 °F 98% 29.75 in 7.0 mi South 8.1 mph - 0.01 in Rain Rain
10:35 AM 62.6 °F 62.2 °F 99% 29.75 in 7.0 mi South 6.9 mph - 0.02 in Rain Light Rain
10:36 AM 62.6 °F 62.2 °F 99% 29.75 in 7.0 mi South 5.8 mph - 0.02 in Rain Light Rain
10:58 AM 63.1 °F 62.6 °F 98% 29.75 in 7.0 mi SSW 6.9 mph - 0.05 in Rain Rain
11:16 AM 63.5 °F 62.8 °F 97% 29.76 in 7.0 mi SSW 8.1 mph - 0.02 in Rain Rain
11:35 AM 63.5 °F 62.8 °F 97% 29.75 in 5.0 mi SSW 10.4 mph - 0.07 in Rain Rain
11:36 AM 63.5 °F 63.0 °F 98% 29.75 in 7.0 mi SSW 9.2 mph - 0.07 in Rain Rain
11:55 AM 63.7 °F 63.1 °F 98% 29.75 in 5.0 mi SW 9.2 mph - 0.10 in Rain Rain
11:56 AM 63.7 °F 63.1 °F 98% 29.75 in 5.0 mi SW 8.1 mph - 0.11 in Rain Rain
12:15 PM 63.9 °F 63.1 °F 97% 29.75 in 7.0 mi WSW 9.2 mph - 0.02 in Rain Rain
12:19 PM 63.9 °F 63.1 °F 97% 29.75 in 7.0 mi SW 8.1 mph - 0.02 in Rain Rain
12:37 PM 64.0 °F 63.3 °F 97% 29.74 in 7.0 mi West 5.8 mph - 0.04 in Rain Light Rain
12:56 PM 64.2 °F 63.3 °F 97% 29.74 in 10.0 mi SSW 6.9 mph - 0.04 in   Mostly Cloudy
1:15 PM 64.8 °F 63.7 °F 96% 29.74 in 10.0 mi SSW 6.9 mph - N/A   Scattered Clouds
1:16 PM 64.9 °F 63.7 °F 96% 29.74 in 10.0 mi SSW 8.1 mph - N/A   Mostly Cloudy
1:35 PM 65.7 °F 63.9 °F 94% 29.73 in 10.0 mi SW 8.1 mph - N/A   Mostly Cloudy
1:58 PM 65.8 °F 63.5 °F 92% 29.72 in 10.0 mi SW 8.1 mph - N/A   Overcast
2:17 PM 66.4 °F 63.5 °F 90% 29.72 in 10.0 mi WSW 9.2 mph - N/A   Overcast
2:36 PM 67.8 °F 64.2 °F 88% 29.72 in 10.0 mi WSW 9.2 mph - N/A   Overcast
2:55 PM 70.3 °F 64.4 °F 81% 29.71 in 10.0 mi WSW 8.1 mph - N/A   Mostly Cloudy
2:56 PM 70.5 °F 64.4 °F 81% 29.71 in 10.0 mi WSW 9.2 mph - N/A   Mostly Cloudy
3:15 PM 70.7 °F 64.0 °F 79% 29.71 in 10.0 mi West 8.1 mph - N/A   Mostly Cloudy
3:19 PM 71.8 °F 64.4 °F 77% 29.70 in 10.0 mi SW 10.4 mph 16.1 mph N/A   Mostly Cloudy
3:37 PM 71.2 °F 63.5 °F 76% 29.70 in 10.0 mi WSW 8.1 mph - N/A   Mostly Cloudy
3:55 PM 68.9 °F 64.2 °F 85% 29.69 in 10.0 mi West 6.9 mph - 0.01 in Rain Light Rain
4:15 PM 70.7 °F 64.6 °F 81% 29.69 in 10.0 mi WSW 11.5 mph - N/A Thunderstorm Clear
4:16 PM 70.7 °F 64.2 °F 80% 29.69 in 10.0 mi West 13.8 mph - N/A Thunderstorm Clear
4:35 PM 72.9 °F 60.4 °F 65% 29.68 in 10.0 mi West 15.0 mph 21.9 mph N/A   Clear
4:58 PM 72.5 °F 60.1 °F 65% 29.68 in 10.0 mi WNW 10.4 mph 16.1 mph N/A   Clear
5:17 PM 72.7 °F 59.7 °F 64% 29.68 in 10.0 mi WNW 15.0 mph 24.2 mph N/A   Clear
5:36 PM 72.5 °F 59.0 °F 62% 29.68 in 10.0 mi West 16.1 mph 20.7 mph N/A   Clear
5:56 PM 70.3 °F 58.3 °F 66% 29.69 in 10.0 mi West 10.4 mph 18.4 mph N/A   Clear
6:15 PM 71.4 °F 59.4 °F 66% 29.70 in 10.0 mi West 10.4 mph 16.1 mph N/A   Scattered Clouds
6:16 PM 71.4 °F 59.4 °F 66% 29.69 in 10.0 mi West 11.5 mph 16.1 mph N/A   Scattered Clouds
6:35 PM 66.2 °F 58.5 °F 76% 29.71 in 5.0 mi WNW 12.7 mph 24.2 mph 0.04 in Rain Heavy Rain
6:39 PM 64.2 °F 58.3 °F 81% 29.71 in 4.0 mi WNW 9.2 mph 24.2 mph 0.06 in Rain Heavy Rain
6:57 PM 62.8 °F 59.5 °F 89% 29.70 in 10.0 mi West 4.6 mph - 0.08 in   Mostly Cloudy
7:15 PM 63.7 °F 60.1 °F 88% 29.71 in 10.0 mi West 5.8 mph - N/A   Scattered Clouds
7:35 PM 64.6 °F 60.6 °F 87% 29.72 in 10.0 mi WNW 10.4 mph 17.3 mph N/A   Mostly Cloudy
7:55 PM 63.5 °F 59.0 °F 85% 29.72 in 10.0 mi WNW 6.9 mph - N/A   Scattered Clouds
7:56 PM 63.3 °F 59.0 °F 86% 29.72 in 10.0 mi WNW 6.9 mph - N/A   Scattered Clouds
8:19 PM 62.6 °F 58.3 °F 86% 29.72 in 10.0 mi West 8.1 mph - N/A   Scattered Clouds
8:36 PM 61.3 °F 58.1 °F 89% 29.73 in 10.0 mi WNW 4.6 mph - N/A   Scattered Clouds
8:55 PM 60.6 °F 57.2 °F 88% 29.74 in 10.0 mi West 9.2 mph - N/A   Clear
9:15 PM 60.3 °F 55.9 °F 86% 29.74 in 10.0 mi WNW 5.8 mph - N/A   Clear
9:16 PM 60.1 °F 55.9 °F 86% 29.74 in 10.0 mi WNW 5.8 mph - N/A   Clear
9:35 PM 58.5 °F 55.6 °F 90% 29.75 in 10.0 mi West 4.6 mph - N/A   Clear
9:39 PM 58.1 °F 55.4 °F 91% 29.75 in 10.0 mi West 4.6 mph - N/A   Clear
9:58 PM 57.4 °F 54.9 °F 91% 29.77 in 10.0 mi West 10.4 mph - N/A   Clear
10:15 PM 57.9 °F 54.7 °F 89% 29.76 in 10.0 mi West 9.2 mph - N/A   Scattered Clouds
10:35 PM 57.4 °F 54.5 °F 90% 29.76 in 10.0 mi West 6.9 mph - N/A   Clear
10:55 PM 57.2 °F 54.5 °F 91% 29.76 in 10.0 mi West 6.9 mph - N/A   Scattered Clouds
10:56 PM 57.2 °F 54.5 °F 91% 29.75 in 10.0 mi West 6.9 mph - N/A   Scattered Clouds
11:19 PM 57.4 °F 54.3 °F 90% 29.75 in 10.0 mi WSW 6.9 mph - N/A   Scattered Clouds
11:36 PM 57.7 °F 54.1 °F 88% 29.75 in 10.0 mi WSW 6.9 mph - N/A   Clear
11:55 PM 57.6 °F 54.0 °F 88% 29.76 in 10.0 mi West 8.1 mph - N/A   Scattered Clouds
11:56 PM 57.6 °F 54.0 °F 88% 29.76 in 10.0 mi West 8.1 mph - N/A   Scattered Clouds